Location: Haram ta Haram Freeway
(35.0583°N, 51.4202°E)
Time: 13:21:01
(UTC+04:30)

CAS-4A - Pass Details

Date: 03 July 2020
Orbit: 528 x 545 km, 43.0° (Epoch: 02 August)

Event Time Altitude Azimuth Distance (km) Brightness Sun altitude
Exits shadow 03:42:11 12° 135° (SE) 1,626 ? -21.5°
Drops below altitude 10° 03:43:49 10° 111° (ESE) 1,776 ? -21.3°
Sets 03:47:12 0° 81° (E) 2,666 ? -20.9°
